Regional Weather Roundup
Issued by NWS Goodland, KS

Home | Current Version | Previous Version | Graphics & Text | Print | Product List | Glossary On
Versions: 1 2 3 4 5 6 7 8 9 10 11 12 13 14 15 16 17 18 19 20 21 22 23 24 25 26 27 28 29 30 31 32 33 34 35 36 37 38 39 40 41 42 43 44 45 46 47 48 49 50
000
ASUS43 KGLD 040859
RWRGLD

GOODLAND FORECAST AREA HOURLY WEATHER ROUNDUP
NATIONAL WEATHER SERVICE GOODLAND KS
200 AM MST WED MAR 04 2015

...OFFICIAL OBSERVATIONS...

CITY           SKY/WX    TMP DP  RH WIND       PRES   REMARKS
GOODLAND KS    LGT SNOW  17  14  88 NE7       30.06R FOG
HILL CITY KS   CLOUDY    19  12  74 NE18      30.16R WCI   4
IMPERIAL NEB   LGT SNOW  16  12  84 N3        30.10R FOG
MCCOOK NEB     LGT SNOW  18  14  84 NE5       30.14R FOG
AKRON CO       LGT SNOW  13  10  88 NE13      30.02R FOG     WCI  -2
BURLINGTON CO  LGT SNOW  16  12  84 E12       30.03R FOG     WCI   3
LIMON CO       LGT SNOW  15  12  88 E9        29.94R FOG
$$

...UNOFFICIAL OBSERVATIONS...

CITY           SKY/WX    TMP DP  RH WIND       PRES   REMARKS
COLBY KS       LGT SNOW  18  18 100 N9        30.10R
GOVE KS          N/A     20  32 100 MISG        N/A
LENORA KS        N/A     17  32 100 S8          N/A
NORTON KS      LGT SNOW  18  12  79 N5        30.13R
SHARON SPRINGS   N/A     19  13  76 NE13G20     N/A  WCI   6
KIT CARSON CO    N/A     18  14  84 MISG        N/A
YUMA CO          N/A     15  11  84 N8          N/A
$$



USA.gov is the U.S. government's official web portal to all federal, state and local government web resources and services.